time_stamp(utc),avg(mph),gust(mph),direction(deg),12m_air_temp(f),sonic_u(cm/s),sonic_v(cm/s),sonic_w(cm/s),pressure,2m_air_temp(f),pyranometer(W/m^2)
"2020-12-18 00:02:39+00",9.4,11.4,,33.3,114,375,0,1018.68,32.6,0
"2020-12-18 00:07:39+00",9.3,10.3,,33.3,38,405,6,1019.01,32.5,0
"2020-12-18 00:12:39+00",9.5,11.5,,33.3,11,420,0,1019,32.5,0
"2020-12-18 00:17:39+00",8.6,9.6,,33.1,-21,375,11,1019.01,32.5,0
"2020-12-18 00:22:39+00",9.4,10.4,,33.1,-30,406,2,1019.08,32.4,0
"2020-12-18 00:27:39+00",9.5,11.5,,33.1,-38,419,21,1019.1,32.3,0
"2020-12-18 00:32:39+00",8.0,10.0,,33,-36,354,11,1019.09,32.2,0
"2020-12-18 00:37:39+00",10.5,12.5,,32.9,-23,456,9,1018.95,32,0
"2020-12-18 00:42:39+00",9.0,11.0,,32.6,-6,394,-2,1019.17,31.6,0
"2020-12-18 00:47:39+00",9.6,10.6,,32.4,3,416,7,1019.23,31.3,0
"2020-12-18 00:52:39+00",8.4,9.4,,32.3,-10,371,7,1019.33,31,0
"2020-12-18 00:57:39+00",8.8,11.8,,32.3,33,381,7,1019.46,30.8,0
"2020-12-18 01:02:39+00",9.9,11.9,,32.3,18,422,2,1019.58,30.7,0
"2020-12-18 01:07:39+00",11.7,13.7,,32.4,14,519,5,1019.59,30.7,0
"2020-12-18 01:12:39+00",11.6,13.6,,32.2,-8,524,7,1019.63,30.7,0
"2020-12-18 01:17:39+00",10.4,12.4,,32.1,-9,459,10,1019.66,30.6,0
"2020-12-18 01:22:39+00",9.8,11.8,,31.9,-14,430,11,1019.62,30.6,0
"2020-12-18 01:27:39+00",10.7,13.7,,31.8,-25,483,10,1019.69,30.5,0
"2020-12-18 01:32:39+00",10.4,12.4,,31.7,-39,467,11,1019.73,30.4,0
"2020-12-18 01:37:39+00",11.5,13.5,,31.5,-85,513,4,1019.82,30.2,0
"2020-12-18 01:42:39+00",8.5,10.5,,31.4,-75,370,24,1019.97,30.1,0
"2020-12-18 01:47:39+00",9.2,10.2,,31.2,-81,390,12,1020.03,30.1,0
"2020-12-18 01:52:39+00",12.0,14.0,,31.1,-69,527,13,1020.07,29.9,0
"2020-12-18 01:57:39+00",13.3,14.3,,31,-55,588,13,1019.95,29.9,0
"2020-12-18 02:02:39+00",11.7,13.7,,30.8,-39,507,5,1019.94,29.8,0
"2020-12-18 02:07:39+00",14.0,16.0,,30.6,-12,627,6,1020.05,29.6,0
"2020-12-18 02:12:39+00",11.9,13.9,,30.4,29,523,-2,1020.02,29.5,0
"2020-12-18 02:17:39+00",9.9,11.9,,30.4,12,435,3,1020.04,29.5,0
"2020-12-18 02:22:39+00",10.3,12.3,,30.4,5,449,10,1020.08,29.4,0
"2020-12-18 02:27:39+00",9.1,11.1,,30.3,13,402,4,1020.11,29.3,0
"2020-12-18 02:32:39+00",10.8,11.8,,30.3,6,474,2,1020.06,29.3,0
"2020-12-18 02:37:39+00",12.5,14.5,,30.3,-7,565,11,1019.96,29.3,0
"2020-12-18 02:42:39+00",13.0,14.0,,30.2,-6,575,11,1019.93,29.2,0
"2020-12-18 02:47:39+00",12.9,14.9,,30.2,-67,579,15,1019.95,29.2,0
"2020-12-18 02:52:39+00",15.1,17.1,,30.2,-97,682,3,1019.93,29.2,0
"2020-12-18 02:57:39+00",12.0,13.0,,30.2,-94,528,12,1020.15,29.3,0
"2020-12-18 03:02:39+00",13.1,15.1,,30.1,-65,598,9,1020.32,29.2,0
"2020-12-18 03:07:39+00",12.6,14.6,,29.9,7,565,7,1020.35,29.1,0
"2020-12-18 03:12:39+00",13.8,16.8,,29.8,-32,620,15,1020.41,29,0
"2020-12-18 03:17:39+00",14.1,17.1,,29.7,-63,640,25,1020.35,28.9,0
"2020-12-18 03:22:39+00",13.4,17.4,,29.6,-36,578,16,1020.6,28.8,0
"2020-12-18 03:27:39+00",13.9,15.9,,29.5,2,619,0,1020.55,28.8,0
"2020-12-18 03:32:39+00",13.5,15.5,,29.4,-47,609,24,1020.6,28.7,0
"2020-12-18 03:37:39+00",13.8,15.8,,29.3,-19,610,8,1020.56,28.6,0
"2020-12-18 03:42:39+00",16.7,18.7,,29.3,31,741,4,1020.6,28.6,0
"2020-12-18 03:47:39+00",14.5,17.5,,29.4,43,632,-4,1020.56,28.6,0
"2020-12-18 03:52:39+00",14.4,16.4,,29.4,14,630,4,1020.52,28.6,0
"2020-12-18 03:57:39+00",14.7,16.7,,29.3,-23,648,22,1020.49,28.5,0
"2020-12-18 04:02:39+00",14.0,17.0,,29.2,-17,635,10,1020.51,28.5,0
"2020-12-18 04:07:39+00",13.4,15.4,,29,39,581,5,1020.53,28.4,0
"2020-12-18 04:12:39+00",12.4,14.4,,29,-5,548,5,1020.6,28.4,0
"2020-12-18 04:17:39+00",13.4,15.4,,28.8,21,578,8,1020.56,28.3,0
"2020-12-18 04:22:39+00",15.0,17.0,,28.8,-5,671,-2,1020.65,28.2,0
"2020-12-18 04:27:39+00",10.6,12.6,,28.8,-5,486,26,1020.62,28.1,0
"2020-12-18 04:32:39+00",14.9,16.9,,28.8,24,659,7,1020.54,28.1,0
"2020-12-18 04:37:39+00",13.8,16.8,,28.7,-18,621,17,1020.55,28.1,0
"2020-12-18 04:42:39+00",12.1,15.1,,28.7,16,521,15,1020.6,28,0
"2020-12-18 04:47:39+00",14.9,16.9,,28.8,-32,661,17,1020.53,28.1,0
"2020-12-18 04:52:39+00",12.2,15.2,,28.7,-25,528,7,1020.47,28.1,0
"2020-12-18 04:57:39+00",13.6,15.6,,28.7,-89,586,17,1020.6,28.1,0
"2020-12-18 05:02:39+00",14.5,16.5,,28.6,-75,626,11,1020.58,28,0
"2020-12-18 05:07:39+00",12.2,14.2,,28.5,-69,540,10,1020.65,28,0
"2020-12-18 05:12:39+00",12.5,13.5,,28.4,-75,548,7,1020.55,27.9,0
"2020-12-18 05:17:39+00",10.6,11.6,,28.3,-38,468,11,1020.4,27.9,0
"2020-12-18 05:22:39+00",12.1,14.1,,28.2,-53,539,9,1020.44,27.7,0
"2020-12-18 05:27:39+00",11.0,13.0,,28.3,-75,490,16,1020.48,27.7,0
"2020-12-18 05:32:39+00",12.4,14.4,,28.2,-117,539,2,1020.45,27.6,0
"2020-12-18 05:37:39+00",12.2,14.2,,28,-152,540,17,1020.45,27.5,0
"2020-12-18 05:42:39+00",12.2,13.2,,27.7,-130,525,12,1020.51,27.4,0
"2020-12-18 05:47:39+00",12.2,14.2,,27.6,-138,539,17,1020.46,27.2,0
"2020-12-18 05:52:39+00",11.2,13.2,,27.5,-152,486,18,1020.62,27.1,0
"2020-12-18 05:57:39+00",12.6,14.6,,27.4,-155,539,22,1020.69,27.1,0
"2020-12-18 06:02:39+00",13.0,15.0,,27.4,-169,564,9,1020.73,27,0
"2020-12-18 06:07:39+00",14.6,16.6,,27.4,-109,643,2,1020.64,26.9,0
"2020-12-18 06:12:39+00",14.6,16.6,,27.3,-126,643,9,1020.69,26.9,0
"2020-12-18 06:17:39+00",13.8,15.8,,27.4,-151,601,15,1020.9,26.9,0
"2020-12-18 06:22:39+00",15.2,17.2,,27.3,-261,620,19,1020.97,26.9,0
"2020-12-18 06:27:39+00",13.5,16.5,,27.2,-219,543,31,1021.02,26.9,0
"2020-12-18 06:32:39+00",13.7,15.7,,27.1,-206,588,14,1021.2,26.8,0
"2020-12-18 06:37:39+00",13.9,16.9,,27,-238,564,24,1021.28,26.8,0
"2020-12-18 06:42:39+00",15.1,17.1,,26.9,-191,645,11,1021.3,26.7,0
"2020-12-18 06:47:39+00",13.9,14.9,,26.8,-172,587,15,1021.29,26.6,0
"2020-12-18 06:52:39+00",12.1,16.1,,26.7,-189,495,20,1021.43,26.5,0
"2020-12-18 06:57:39+00",12.9,14.9,,26.6,-173,558,6,1021.5,26.3,0
"2020-12-18 07:02:39+00",14.2,17.2,,26.5,-186,612,12,1021.47,26.2,0
"2020-12-18 07:07:39+00",12.2,13.2,,26.5,-138,530,5,1021.61,26.2,0
"2020-12-18 07:12:39+00",13.3,14.3,,26.5,-151,579,-1,1021.57,26.1,0
"2020-12-18 07:17:39+00",12.5,14.5,,26.4,-139,533,9,1021.56,26.1,0
"2020-12-18 07:22:39+00",11.1,13.1,,26.5,-136,471,23,1021.63,26,0
"2020-12-18 07:27:39+00",13.4,15.4,,26.3,-148,578,0,1021.7,25.9,0
"2020-12-18 07:32:39+00",11.9,14.9,,26.3,-116,517,24,1021.75,25.9,0
"2020-12-18 07:37:39+00",11.8,13.8,,26.3,-112,509,27,1021.72,25.9,0
"2020-12-18 07:42:39+00",12.8,15.8,,26.4,-138,537,15,1021.67,25.8,0
"2020-12-18 07:47:39+00",13.4,14.4,,26.4,-139,573,5,1021.68,25.8,0
"2020-12-18 07:52:39+00",12.3,15.3,,26.3,-127,535,20,1021.71,25.9,0
"2020-12-18 07:57:39+00",12.9,14.9,,26.4,-163,540,5,1021.87,25.8,0
"2020-12-18 08:02:39+00",12.7,15.7,,26.3,-155,544,5,1021.95,25.8,0
"2020-12-18 08:07:39+00",11.6,14.6,,26.2,-160,487,14,1021.88,25.8,0
"2020-12-18 08:12:39+00",12.7,15.7,,26.1,-146,550,9,1021.94,25.7,0
"2020-12-18 08:17:39+00",12.1,16.1,,26.1,-122,525,11,1021.76,25.7,0
"2020-12-18 08:22:39+00",13.1,16.1,,26,-184,555,21,1021.75,25.6,0
"2020-12-18 08:27:39+00",12.8,15.8,,25.9,-161,548,19,1021.78,25.5,0
"2020-12-18 08:32:39+00",14.1,17.1,,25.8,-202,575,28,1021.8,25.4,0
"2020-12-18 08:37:39+00",14.1,18.1,,25.7,-193,602,14,1021.8,25.4,0
"2020-12-18 08:42:39+00",13.2,16.2,,25.7,-185,556,8,1021.98,25.3,0
"2020-12-18 08:47:39+00",15.5,19.5,,25.6,-194,676,-3,1021.89,25.2,0
"2020-12-18 08:52:39+00",13.8,16.8,,25.6,-173,583,27,1021.96,25.2,0
"2020-12-18 08:57:39+00",11.5,13.5,,25.5,-143,491,15,1021.89,25.1,0
"2020-12-18 09:02:39+00",13.9,15.9,,25.5,-158,586,20,1021.91,25,0
"2020-12-18 09:07:39+00",15.7,18.7,,25.5,-183,690,7,1021.87,25,0
"2020-12-18 09:12:39+00",15.7,17.7,,25.6,-191,678,7,1022.03,25,0
"2020-12-18 09:17:39+00",13.3,16.3,,25.6,-161,572,21,1022.15,25,0
"2020-12-18 09:22:39+00",14.3,17.3,,25.4,-182,599,4,1022.07,25,0
"2020-12-18 09:27:39+00",14.6,16.6,,25.3,-188,629,9,1022.13,24.9,0
"2020-12-18 09:32:39+00",15.5,17.5,,25.3,-190,667,-4,1022.16,24.8,0
"2020-12-18 09:37:39+00",15.1,19.1,,25.3,-127,644,3,1022.32,24.8,0
"2020-12-18 09:42:39+00",15.5,18.5,,25.3,-134,693,8,1022.37,24.8,0
"2020-12-18 09:47:39+00",14.9,16.9,,25.4,-121,664,6,1022.38,24.8,0
"2020-12-18 09:52:39+00",15.8,16.8,,25.3,-124,699,8,1022.34,24.8,0
"2020-12-18 09:57:39+00",14.6,16.6,,25.4,-127,631,24,1022.4,24.7,0
"2020-12-18 10:02:39+00",15.8,19.8,,25.3,-165,696,-3,1022.35,24.8,0
"2020-12-18 10:07:39+00",15.9,19.9,,25.3,-157,706,6,1022.37,24.8,0
"2020-12-18 10:12:39+00",14.3,17.3,,25.3,-152,626,20,1022.54,24.7,0
"2020-12-18 10:17:39+00",16.1,18.1,,25.3,-171,687,5,1022.45,24.7,0
"2020-12-18 10:22:39+00",14.8,15.8,,25.2,-162,639,25,1022.59,24.7,0
"2020-12-18 10:27:39+00",14.4,16.4,,25.2,-139,636,11,1022.7,24.7,0
"2020-12-18 10:32:39+00",15.8,17.8,,25.1,-185,692,-10,1022.68,24.6,0
"2020-12-18 10:37:39+00",14.8,17.8,,25.1,-209,637,28,1022.87,24.6,0
"2020-12-18 10:42:39+00",16.5,18.5,,25,-232,697,15,1022.96,24.5,0
"2020-12-18 10:47:39+00",16.0,19.0,,24.9,-243,674,0,1022.99,24.5,0
"2020-12-18 10:52:39+00",15.4,17.4,,24.8,-218,642,16,1023.05,24.4,0
"2020-12-18 10:57:39+00",15.8,18.8,,24.7,-237,679,12,1023.01,24.4,0
"2020-12-18 11:02:39+00",15.5,18.5,,24.6,-215,657,7,1023.06,24.3,0
"2020-12-18 11:07:39+00",17.9,18.9,,24.6,-291,740,15,1023.06,24.3,0
"2020-12-18 11:12:39+00",12.7,14.7,,24.5,-169,534,36,1023.16,24.2,0
"2020-12-18 11:17:39+00",14.2,16.2,,24.5,-244,593,3,1023.22,24.2,0
"2020-12-18 11:22:39+00",12.9,14.9,,24.4,-222,520,19,1023.32,24.1,0
"2020-12-18 11:27:39+00",13.7,16.7,,24.3,-271,553,38,1023.42,24,0
"2020-12-18 11:32:39+00",15.4,17.4,,24.3,-306,615,24,1023.33,24,0
"2020-12-18 11:37:39+00",15.2,17.2,,24.3,-276,623,15,1023.44,23.9,0
"2020-12-18 11:42:39+00",13.3,15.3,,24.3,-217,551,31,1023.5,23.9,0
"2020-12-18 11:47:39+00",12.8,14.8,,24.2,-260,515,29,1023.63,23.9,0
"2020-12-18 11:52:39+00",15.0,16.0,,24.2,-287,596,11,1023.63,23.9,0
"2020-12-18 11:57:39+00",13.2,17.2,,24.2,-214,540,10,1023.71,23.9,0
"2020-12-18 12:02:39+00",12.5,14.5,,24.2,-245,496,18,1023.73,23.9,0
"2020-12-18 12:07:39+00",13.9,14.9,,24.1,-197,595,1,1023.79,23.8,0
"2020-12-18 12:12:39+00",13.4,15.4,,24.2,-177,571,-1,1023.73,23.9,0
"2020-12-18 12:17:39+00",11.9,13.9,,24.4,-168,502,26,1023.76,23.9,0
"2020-12-18 12:22:39+00",13.4,14.4,,24.6,-160,566,9,1023.81,24.1,0
"2020-12-18 12:27:39+00",12.6,14.6,,24.8,-198,522,26,1023.89,24.4,0
"2020-12-18 12:32:39+00",13.2,15.2,,24.9,-206,561,24,1023.82,24.7,0
"2020-12-18 12:37:39+00",13.1,14.1,,25,-186,539,17,1023.89,25.1,0
"2020-12-18 12:42:39+00",12.4,14.4,,25.1,-183,527,13,1023.86,25.5,0
"2020-12-18 12:47:39+00",13.9,14.9,,25.3,-190,594,4,1023.95,25.9,0
"2020-12-18 12:52:39+00",11.7,13.7,,25.6,-183,470,26,1024.09,26.2,0
"2020-12-18 12:57:39+00",14.0,16.0,,25.6,-228,567,24,1024.03,26.3,0
"2020-12-18 13:02:39+00",15.0,18.0,,25.6,-310,603,16,1024.15,26.2,0
"2020-12-18 13:07:39+00",15.9,17.9,,25.6,-273,653,14,1024.17,26.1,0
"2020-12-18 13:12:39+00",14.8,17.8,,25.8,-250,612,23,1024.25,26,0
"2020-12-18 13:17:39+00",16.1,18.1,,25.9,-256,678,12,1024.26,26.1,0
"2020-12-18 13:22:39+00",13.2,17.2,,26.2,-234,540,35,1024.35,26.4,0
"2020-12-18 13:27:39+00",11.0,14.0,,26.5,-222,438,72,1024.36,26.8,0
"2020-12-18 13:32:39+00",13.2,16.2,,26.6,-255,520,37,1024.37,27.4,0
"2020-12-18 13:37:39+00",14.0,15.0,,26.9,-314,524,33,1024.46,28,0
"2020-12-18 13:42:39+00",14.4,16.4,,27.2,-339,548,49,1024.51,28.4,0
"2020-12-18 13:47:39+00",13.7,14.7,,27.3,-332,519,24,1024.37,28.9,0
"2020-12-18 13:52:39+00",13.8,15.8,,27.4,-345,518,41,1024.52,29.2,0
"2020-12-18 13:57:39+00",15.7,18.7,,27.4,-380,580,27,1024.52,29.1,0
"2020-12-18 14:02:39+00",12.9,14.9,,27.5,-309,502,50,1024.71,29,0
"2020-12-18 14:07:39+00",15.5,17.5,,27.7,-328,597,30,1024.74,29.2,0
"2020-12-18 14:12:39+00",14.4,15.4,,27.7,-373,519,64,1024.78,29.2,0
"2020-12-18 14:17:39+00",14.2,16.2,,27.9,-263,583,26,1024.76,29.4,0
"2020-12-18 14:22:39+00",17.2,19.2,,27.8,-330,695,29,1024.75,29.6,0
"2020-12-18 14:27:39+00",17.0,20.0,,28.1,-241,734,8,1024.77,29.9,0
"2020-12-18 14:32:39+00",12.9,17.9,,28.7,-269,509,50,1024.87,30.2,0
"2020-12-18 14:37:39+00",14.3,18.3,,28.7,-204,612,3,1024.9,30.5,0
"2020-12-18 14:42:39+00",15.6,17.6,,28.7,-298,617,31,1024.86,30.7,0
"2020-12-18 14:47:39+00",14.7,16.7,,29.2,-254,598,30,1024.95,31,0
"2020-12-18 14:52:39+00",14.0,19.0,,29.7,-201,592,56,1024.93,31.5,0
"2020-12-18 14:57:39+00",15.4,17.4,,29.5,-360,593,55,1024.78,31.7,0
"2020-12-18 15:02:39+00",15.3,18.3,,29.6,-132,665,19,1024.77,31.8,0
"2020-12-18 15:07:39+00",16.9,18.9,,29.7,-241,711,-1,1024.76,32.1,0
"2020-12-18 15:12:39+00",18.2,21.2,,29.9,-301,762,10,1024.66,32.6,0
"2020-12-18 15:17:39+00",17.2,19.2,,29.9,-79,760,7,1024.58,32.9,0
"2020-12-18 15:22:39+00",15.6,19.6,,30.4,-152,666,29,1024.63,33.4,0
"2020-12-18 15:27:39+00",15.1,18.1,,30.6,-82,666,19,1024.58,33.9,0
"2020-12-18 15:32:39+00",17.2,20.2,,30.6,-94,768,4,1024.52,34,0
"2020-12-18 15:37:39+00",14.9,16.9,,30.8,-75,670,15,1024.45,34.4,0
"2020-12-18 15:42:39+00",16.3,18.3,,30.8,-34,727,10,1024.37,34.8,0
"2020-12-18 15:47:39+00",15.5,17.5,,30.9,-95,692,5,1024.53,34.5,0
"2020-12-18 15:52:39+00",15.6,16.6,,30.8,-232,653,8,1024.58,34.2,0
"2020-12-18 15:57:39+00",14.9,15.9,,31.1,-179,636,5,1024.62,33.9,0
"2020-12-18 16:02:39+00",13.9,14.9,,31.1,-159,597,-6,1024.57,34,0
"2020-12-18 16:07:39+00",13.1,15.1,,31.4,-99,566,0,1024.66,34.6,0
"2020-12-18 16:12:39+00",13.0,15.0,,31.7,-80,570,-6,1024.53,34.8,0
"2020-12-18 16:17:39+00",12.7,13.7,,31.9,-239,510,19,1024.65,35,0
"2020-12-18 16:22:39+00",11.9,14.9,,32.1,-47,531,5,1024.65,35.2,0
"2020-12-18 16:27:39+00",11.4,14.4,,32.4,-68,503,24,1024.62,35.8,0
"2020-12-18 16:32:39+00",12.9,15.9,,32.9,-202,536,8,1024.5,36.5,0
"2020-12-18 16:37:39+00",13.3,16.3,,32.9,-321,500,19,1024.46,36.2,0
"2020-12-18 16:42:39+00",14.9,16.9,,33.3,-269,592,24,1024.55,36.5,0
"2020-12-18 16:47:39+00",15.0,17.0,,33.4,-327,583,18,1024.46,36.5,0
"2020-12-18 16:52:39+00",12.2,15.2,,33.4,-127,530,34,1024.43,36.4,0
"2020-12-18 16:57:39+00",11.7,13.7,,33.7,-184,486,17,1024.42,36.6,0
"2020-12-18 17:02:39+00",15.8,15.8,,33.7,-334,615,19,1024.23,36.5,0
"2020-12-18 17:07:39+00",17.0,19.0,,34,-431,617,23,1024.09,36.5,0
"2020-12-18 17:12:39+00",15.5,18.5,,33.8,-174,662,24,1024.16,36.3,0
"2020-12-18 17:17:39+00",14.9,16.9,,33.8,-201,624,19,1024.21,36.2,0
"2020-12-18 17:22:39+00",14.3,17.3,,33.8,-133,622,8,1024.19,36.6,0
"2020-12-18 17:27:39+00",13.3,15.3,,34,-331,486,35,1024.21,36.5,0
"2020-12-18 17:32:39+00",13.5,14.5,,34,-215,552,11,1024.27,36.3,0
"2020-12-18 17:37:39+00",11.3,15.3,,34.2,-301,402,33,1024.25,36.3,0
"2020-12-18 17:42:39+00",12.8,14.8,,34.4,-365,429,68,1024.3,36.4,0
"2020-12-18 17:47:39+00",17.8,19.8,,34.2,-378,701,44,1024.27,36.2,0
"2020-12-18 17:52:39+00",18.5,20.5,,34.2,-434,702,38,1024.28,35.9,0
"2020-12-18 17:57:39+00",16.2,18.2,,34.3,-480,543,27,1024.34,35.8,0
"2020-12-18 18:02:39+00",15.2,19.2,,34.5,-439,499,41,1024.33,36,0
"2020-12-18 18:07:39+00",15.8,18.8,,34.6,-491,498,25,1024.31,36.1,0
"2020-12-18 18:12:39+00",14.8,15.8,,34.7,-360,547,11,1024.42,36.2,0
"2020-12-18 18:17:39+00",13.6,15.6,,34.7,-226,569,11,1024.42,36.4,0
"2020-12-18 18:22:39+00",10.7,11.7,,34.6,-194,431,7,1024.43,36.4,0
"2020-12-18 18:27:39+00",16.3,17.3,,34.9,-475,552,35,1024.44,36.5,0
"2020-12-18 18:32:39+00",17.0,19.0,,34.9,-549,523,42,1024.39,36.5,0
"2020-12-18 18:37:39+00",15.0,17.0,,34.8,-449,483,32,1024.45,36.5,0
"2020-12-18 18:42:39+00",15.4,17.4,,34.8,-483,498,27,1024.41,36.6,0
"2020-12-18 18:47:39+00",10.5,12.5,,35.1,-255,382,47,1024.35,36.8,0
"2020-12-18 18:52:39+00",13.0,15.0,,35.6,-155,543,29,1024.39,37.4,0
"2020-12-18 18:57:39+00",12.8,14.8,,35.4,-205,529,16,1024.4,37.7,0
"2020-12-18 19:02:39+00",10.9,12.9,,35.6,-224,441,-4,1024.44,38.1,0
"2020-12-18 19:07:39+00",12.9,14.9,,35.5,-373,410,19,1024.36,38.1,0
"2020-12-18 19:12:39+00",14.0,15.0,,35.6,-324,532,13,1024.39,37.8,0
"2020-12-18 19:17:39+00",14.4,16.4,,35.8,-363,529,40,1024.41,37.8,0
"2020-12-18 19:22:39+00",13.8,15.8,,35.7,-334,517,9,1024.5,37.8,0
"2020-12-18 19:27:39+00",13.6,15.6,,35.8,-286,530,35,1024.52,37.8,0
"2020-12-18 19:32:39+00",13.2,15.2,,35.8,-460,357,46,1024.59,37.8,0
"2020-12-18 19:37:39+00",13.3,15.3,,35.6,-491,371,43,1024.78,37.5,0
"2020-12-18 19:42:39+00",12.0,14.0,,35.7,-259,452,0,1024.87,37.4,0
"2020-12-18 19:47:39+00",17.7,18.7,,35.4,-458,639,32,1024.87,37.2,0
"2020-12-18 19:52:39+00",13.1,16.1,,35.5,-362,444,69,1024.94,37.1,0
"2020-12-18 19:57:39+00",15.5,17.5,,35.5,-420,557,33,1024.97,37,0
"2020-12-18 20:02:39+00",14.9,16.9,,35.4,-452,516,46,1024.88,36.9,0
"2020-12-18 20:07:39+00",13.7,16.7,,35.4,-326,514,47,1024.92,36.9,0
"2020-12-18 20:12:39+00",14.9,16.9,,35.3,-394,525,43,1025.02,36.7,0
"2020-12-18 20:17:39+00",14.2,16.2,,35.3,-331,539,14,1025.15,36.7,0
"2020-12-18 20:22:39+00",16.0,17.0,,35.2,-413,580,18,1025.11,36.5,0
"2020-12-18 20:27:39+00",14.9,15.9,,35.1,-430,505,45,1025.17,36.4,0
"2020-12-18 20:32:39+00",14.6,16.6,,35.1,-423,500,37,1025.26,36.2,0
"2020-12-18 20:37:39+00",16.1,18.1,,34.9,-413,582,19,1025.32,36,0
"2020-12-18 20:42:39+00",14.7,16.7,,34.9,-329,582,36,1025.45,35.9,0
"2020-12-18 20:47:39+00",16.5,19.5,,34.7,-404,606,21,1025.48,35.6,0
"2020-12-18 20:52:39+00",14.6,15.6,,34.6,-351,549,33,1025.6,35.4,0
"2020-12-18 20:57:39+00",12.8,15.8,,34.5,-223,504,29,1025.7,35.1,0
"2020-12-18 21:02:39+00",14.3,16.3,,34.4,-321,560,17,1025.81,34.7,0
"2020-12-18 21:07:39+00",14.2,16.2,,34.3,-282,573,28,1025.87,34.5,0
"2020-12-18 21:12:39+00",12.5,14.5,,34.2,-216,499,15,1025.92,34.3,0
"2020-12-18 21:17:39+00",11.9,13.9,,34.1,-175,494,12,1025.93,34,0
"2020-12-18 21:22:39+00",10.2,12.2,,33.8,-126,443,18,1025.98,33.7,0
"2020-12-18 21:27:39+00",12.4,14.4,,33.7,-157,519,0,1025.96,33.4,0
"2020-12-18 21:32:39+00",10.7,11.7,,33.5,-158,442,1,1026.05,33,0
"2020-12-18 21:37:39+00",10.0,11.0,,33.3,-137,423,7,1026.2,32.7,0
"2020-12-18 21:42:39+00",9.6,10.6,,33.1,-145,394,10,1026.22,32.4,0
"2020-12-18 21:47:39+00",8.9,9.9,,33.1,-129,379,5,1026.32,32.1,0
"2020-12-18 21:52:39+00",8.9,9.9,,33.1,-143,370,10,1026.47,31.9,0
"2020-12-18 21:57:39+00",9.1,10.1,,33,-96,389,2,1026.47,31.7,0
"2020-12-18 22:02:39+00",8.8,9.8,,32.9,-96,368,0,1026.54,31.5,0
"2020-12-18 22:07:39+00",8.1,9.1,,32.7,-108,337,6,1026.57,31.2,0
"2020-12-18 22:12:39+00",7.9,9.9,,32.6,-134,318,12,1026.72,31,0
"2020-12-18 22:17:39+00",8.0,8.0,,32.6,-165,309,15,1027,30.8,0
"2020-12-18 22:22:39+00",7.8,8.8,,32.8,-164,303,11,1027.08,30.7,0
"2020-12-18 22:27:39+00",8.0,9.0,,32.9,-157,318,14,1027.1,30.7,0
"2020-12-18 22:32:39+00",7.8,8.8,,32.8,-159,301,12,1027.12,30.8,0
"2020-12-18 22:37:39+00",6.7,7.7,,32.8,-140,257,13,1027.26,30.7,0
"2020-12-18 22:42:39+00",7.1,8.1,,32.7,-194,249,12,1027.39,30.8,0
"2020-12-18 22:47:39+00",6.7,6.7,,32.7,-156,250,6,1027.38,30.8,0
"2020-12-18 22:52:39+00",6.4,7.4,,32.6,-103,254,3,1027.31,30.7,0
"2020-12-18 22:57:39+00",6.8,7.8,,32.5,-160,246,12,1027.37,30.5,0
"2020-12-18 23:02:39+00",5.9,6.9,,32.5,-143,208,6,1027.47,30.4,0
"2020-12-18 23:07:39+00",5.5,6.5,,32.5,-142,186,8,1027.51,30.3,0
"2020-12-18 23:12:39+00",6.4,7.4,,32.5,-183,213,3,1027.61,30.2,0
"2020-12-18 23:17:39+00",6.2,7.2,,32.5,-154,221,8,1027.63,30.2,0
"2020-12-18 23:22:39+00",6.0,7.0,,32.4,-178,192,10,1027.71,30.2,0
"2020-12-18 23:27:39+00",8.5,9.5,,32.6,-230,281,11,1027.66,30.3,0
"2020-12-18 23:32:39+00",7.4,8.4,,32.5,-200,259,11,1027.7,30.5,0
"2020-12-18 23:37:39+00",7.5,7.5,,32.3,-235,234,13,1027.75,30.5,0
"2020-12-18 23:42:39+00",8.2,9.2,,32.2,-280,231,21,1027.82,30.5,0
"2020-12-18 23:47:39+00",7.9,8.9,,32.2,-317,181,11,1027.91,30.7,0
"2020-12-18 23:52:39+00",6.8,7.8,,32.1,-244,178,8,1027.9,30.7,0
"2020-12-18 23:57:39+00",6.8,7.8,,32,-221,219,22,1027.94,30.8,0
